Theta_e
318 316 315 317 316 315 317 317 317 318 315 315 314 316 315 317 313 312 312 312 312 312 313 314 314 314 314 315 314 311 315 316 314 313 314 312 311 306 303 303 302 301 302 302 301
318 318 316 316 317 317 317 318 318 318 317 314 315 316 316 315 315 313 312 311 312 313 313 312 311 311 312 315 313 312 314 316 313 311 313 313 311 306 306 303 302 300 299 300 300
316 318 318 317 317 318 318 319 319 318 318 315 316 314 315 313 315 314 312 311 312 313 313 313 312 312 314 314 313 312 311 314 314 312 311 312 309 306 305 306 301 299 297 297 297
313 315 317 318 317 317 318 318 318 317 318 316 316 314 314 315 316 314 313 311 312 313 313 312 310 311 313 314 313 315 313 313 313 313 311 310 307 307 305 307 302 299 297 296 295
311 312 314 316 317 317 318 318 318 317 317 316 316 314 316 315 312 314 312 312 311 313 311 311 311 310 312 313 313 314 314 313 311 310 310 308 309 308 303 300 298 297 296 295 294
309 311 312 313 315 316 317 317 317 316 316 316 315 315 317 317 314 312 310 312 310 312 311 310 311 311 313 315 313 312 313 311 310 311 308 310 308 306 302 297 296 296 295 294 294
309 309 310 311 313 314 316 316 316 315 316 315 315 316 318 315 314 310 311 312 310 311 311 310 310 311 312 312 311 311 312 310 311 310 311 307 309 307 301 297 297 296 295 295 294
310 309 309 310 312 313 314 314 314 315 316 314 315 316 313 314 313 311 310 311 310 310 311 310 310 311 311 311 311 312 311 312 312 309 309 308 310 308 300 298 298 296 294 294 293
311 310 309 309 311 313 314 314 313 315 316 312 316 316 315 313 314 313 311 310 309 310 310 310 311 310 309 311 311 308 313 312 310 308 309 307 308 307 299 299 298 295 294 294 292
312 310 310 309 310 315 314 314 315 316 315 315 315 315 312 314 315 314 311 310 310 310 312 312 305 308 307 310 316 315 310 308 307 309 309 309 308 307 300 299 299 296 293 292 290
314 313 310 309 310 315 314 315 310 309 311 311 311 314 314 315 315 312 310 310 310 311 314 311 312 312 311 310 311 309 308 307 306 308 310 308 309 309 302 298 297 293 293 292 290
314 314 313 310 311 315 312 308 310 310 309 308 308 310 313 314 313 311 309 310 311 314 312 312 313 312 311 308 309 308 309 308 307 307 307 307 306 307 303 302 300 298 294 293 289
313 314 314 311 314 311 309 308 309 309 308 307 311 313 314 312 312 310 307 308 312 312 312 314 313 309 309 308 308 307 308 307 307 305 303 301 302 304 304 302 301 299 295 292 291
312 313 315 312 312 308 311 307 309 310 303 306 312 313 310 309 311 308 306 309 311 313 311 310 308 308 308 308 306 307 306 306 307 305 306 302 309 304 302 301 299 298 292 292 289
311 313 314 316 314 307 310 307 308 307 304 307 314 310 309 310 309 310 306 309 313 311 311 315 306 306 307 306 305 308 305 305 305 305 303 303 303 303 299 300 301 296 293 292 290
310 312 313 313 312 308 306 306 308 307 307 308 312 311 311 310 310 309 308 305 305 310 307 309 305 303 305 306 306 305 305 304 298 300 304 304 304 302 301 301 300 296 294 291 289
310 312 312 313 310 308 306 306 307 306 306 309 315 312 311 311 310 310 309 308 312 314 312 309 307 305 306 308 307 305 306 311 310 305 311 300 300 308 305 301 298 298 293 290 289
310 311 312 312 312 309 308 307 310 304 305 311 313 312 314 311 312 310 310 311 309 311 309 314 314 306 304 306 308 305 307 311 312 309 311 299 306 307 299 293 291 292 293 290 288
311 312 311 312 313 312 301 307 311 309 305 312 312 313 312 311 312 310 308 309 311 307 316 310 310 302 303 303 305 305 304 304 306 285 297 305 301 300 293 292 290 292 290 288 288
311 312 310 311 312 308 301 310 308 307 308 312 311 312 313 313 312 310 309 308 311 306 309 310 312 302 299 300 297 302 300 304 301 303 303 306 306 310 302 297 290 289 289 289 287
312 311 309 311 310 307 315 311 308 308 311 312 311 308 312 313 312 309 312 310 307 305 305 305 309 304 299 301 304 299 300 300 301 305 307 303 311 303 304 298 291 290 290 288 287
312 311 307 308 312 309 312 308 308 308 308 309 310 311 311 311 311 310 311 311 306 303 307 303 306 307 303 297 296 300 303 302 305 304 300 305 311 295 298 297 291 291 290 288 287
311 310 306 305 312 311 306 309 309 307 309 309 310 310 309 310 311 309 310 308 304 305 304 302 305 305 309 302 296 295 298 301 300 300 308 307 310 296 295 294 291 290 289 288 286
311 311 308 305 309 309 308 310 310 308 309 307 308 308 309 310 310 311 309 307 303 304 308 306 306 308 312 309 300 298 297 297 303 306 309 309 308 308 306 302 292 289 288 287 286
311 312 309 311 309 311 309 308 308 310 308 308 308 309 309 310 310 310 310 306 300 301 304 305 311 305 310 311 305 306 307 296 300 304 308 310 309 308 308 308 305 300 289 287 286
315 314 307 311 308 309 310 311 310 308 309 310 309 307 309 310 308 309 311 309 310 298 299 297 309 309 310 308 304 306 308 307 305 304 306 307 307 307 308 306 304 295 288 287 287
314 313 311 313 311 310 310 310 310 309 309 308 309 310 309 309 309 309 307 307 308 308 298 297 303 301 311 307 306 309 309 308 308 308 308 309 308 307 306 302 293 289 288 288 288
Wind_Speed
15 16 17 19 20 21 21 21 23 24 20 15 4 6 6 7 10 6 6 7 7 9 8 7 6 8 2 3 3 3 4 2 3 6 4 2 4 2 1 6 3 4 4 10 19
13 15 16 17 18 19 21 21 22 24 19 15 5 5 2 3 4 9 6 7 7 8 7 9 6 8 3 2 3 4 3 5 2 4 5 3 4 8 4 4 3 4 6 15 13
11 13 15 17 17 18 19 20 21 23 21 14 8 3 5 4 1 1 5 6 6 8 6 4 3 2 3 3 3 2 3 4 3 4 5 4 4 4 8 5 9 12 11 10 13
12 14 15 16 17 18 18 19 21 22 22 14 8 1 2 1 1 3 3 5 6 6 6 6 5 4 3 3 4 2 1 3 5 3 4 5 7 4 5 4 5 14 15 9 9
13 15 16 17 18 19 19 19 20 21 21 12 6 3 1 2 4 2 1 3 4 2 8 3 5 1 1 2 5 1 2 2 6 6 4 6 3 5 6 2 8 14 9 9 10
14 15 17 18 19 19 19 20 21 22 23 10 5 3 1 2 2 2 2 0 5 5 4 5 2 1 1 0 0 3 3 5 4 6 6 6 1 2 6 6 8 10 10 9 11
14 15 17 19 19 21 21 20 21 23 22 9 4 5 3 7 3 1 1 2 5 4 2 3 2 2 2 3 3 3 6 7 3 6 5 6 4 10 7 10 12 11 9 9 11
14 15 17 18 20 21 22 22 21 26 17 6 3 4 5 3 5 2 1 2 2 3 3 3 2 3 1 1 5 4 3 5 2 5 2 5 11 8 12 16 16 12 9 10 9
14 15 16 17 19 22 23 22 23 19 10 2 3 3 5 2 3 5 2 1 1 4 3 3 3 2 4 3 5 6 3 3 8 6 4 7 9 3 9 13 12 12 11 10 8
14 15 16 18 19 22 23 22 18 6 1 2 1 2 1 3 3 3 3 1 2 3 3 3 5 3 4 4 4 4 5 5 6 3 4 5 16 8 10 14 18 12 10 9 9
15 16 16 17 18 21 23 11 6 4 2 5 3 3 1 1 2 2 3 3 3 4 2 3 4 4 9 7 3 2 3 7 6 5 4 9 15 21 10 10 12 11 13 14 13
17 17 19 16 16 17 12 4 3 2 7 1 3 4 5 3 2 4 5 5 4 6 3 4 5 4 2 4 3 3 4 8 10 3 6 9 12 18 8 11 20 20 17 17 10
16 16 17 15 16 9 5 2 1 1 1 7 4 3 3 8 6 6 9 5 4 5 5 6 3 4 4 3 3 5 5 5 8 6 5 8 6 11 4 9 6 12 12 14 17
15 13 13 13 6 7 3 2 1 1 3 7 4 3 3 2 3 2 3 3 3 10 7 6 1 5 4 5 7 5 5 3 5 5 4 4 9 5 6 12 10 12 13 17 14
14 11 8 5 11 3 2 1 1 1 3 4 2 1 2 4 3 1 1 2 6 7 6 7 7 6 6 7 8 7 2 2 2 4 4 5 4 6 2 9 18 13 18 17 17
14 11 8 5 4 5 2 0 1 4 7 4 4 5 3 2 1 2 1 5 2 4 2 6 1 5 7 2 4 4 2 2 4 2 2 5 7 4 5 8 6 5 14 15 15
12 11 10 5 1 1 3 1 2 5 3 5 5 5 4 7 4 6 6 5 7 4 6 1 4 1 2 3 2 4 5 4 5 2 7 4 4 14 11 11 8 9 11 14 14
12 13 13 12 1 3 3 4 8 7 8 2 4 3 7 8 4 6 5 5 6 3 3 5 10 8 5 6 6 6 8 6 6 4 8 1 9 6 6 7 7 8 9 10 12
13 14 15 17 13 5 3 6 9 8 7 9 3 4 6 5 6 6 9 6 9 12 10 6 7 1 2 1 2 4 5 1 2 3 3 5 8 8 5 9 4 6 9 13 15
14 9 14 14 17 9 2 20 8 9 6 3 13 11 9 7 8 8 8 5 6 14 1 6 5 2 2 1 3 3 5 4 2 2 6 7 11 16 8 11 5 7 12 13 11
12 2 8 24 21 3 10 9 8 9 6 8 8 6 8 8 8 7 7 4 6 4 3 5 4 3 4 8 10 2 3 2 3 5 6 2 12 7 8 11 11 14 13 13 14
7 4 9 33 6 4 14 7 7 6 15 10 5 9 10 10 8 8 12 12 10 10 10 7 5 6 14 0 1 3 10 14 6 7 4 4 21 5 8 9 10 13 14 12 13
4 4 12 13 9 12 4 6 14 9 13 13 12 9 7 9 6 10 12 6 10 11 11 9 4 2 5 2 2 7 7 6 2 1 19 9 20 2 3 0 9 10 11 12 12
5 5 4 6 9 11 14 12 13 8 22 7 7 9 6 10 10 7 6 6 7 9 7 15 8 9 17 10 6 6 11 12 16 9 23 28 33 39 27 23 8 10 11 14 15
7 10 9 8 19 22 10 7 23 15 9 18 15 24 15 12 18 23 16 0 2 5 5 10 17 9 25 24 5 6 17 13 18 29 18 39 31 33 30 30 15 16 13 13 15
8 8 3 11 10 24 24 33 29 15 12 12 21 11 23 28 27 17 21 11 17 2 8 4 12 11 20 11 6 11 31 19 25 28 24 32 39 38 37 27 23 11 13 15 16
17 8 6 10 16 15 27 36 30 22 19 23 21 19 22 31 27 26 11 9 10 13 12 9 7 5 23 4 5 13 26 25 28 32 22 28 40 37 28 18 10 7 13 17 16
Wind_Direction
20 19 20 20 17 18 18 18 19 21 20 22 69 127 100 61 45 67 44 347 344 2 7 2 22 15 42 63 53 122 64 115 160 154 193 231 135 28 52 96 45 328 134 143 149
14 12 10 13 13 11 11 12 13 12 12 13 27 178 166 25 40 52 18 8 3 7 14 17 353 360 32 49 23 78 97 188 211 171 176 196 169 156 128 136 55 39 66 135 146
3 3 4 3 4 4 4 3 5 5 4 8 3 206 219 315 335 231 15 19 16 4 360 347 354 45 50 359 5 185 154 180 220 196 160 193 130 141 131 231 195 182 171 163 142
346 350 353 356 356 355 355 356 355 357 359 358 359 299 172 268 252 170 14 21 24 26 23 9 24 39 47 5 335 348 31 188 178 228 156 181 131 156 210 241 184 160 163 155 152
337 340 344 346 347 348 347 347 346 348 350 349 345 201 150 2 255 216 310 18 22 71 53 44 43 53 46 315 338 147 288 302 164 182 220 136 178 202 231 206 131 135 150 154 154
330 334 337 338 339 339 338 337 336 337 339 334 325 200 143 256 187 274 309 287 27 44 54 48 120 159 123 196 38 312 281 269 254 209 181 185 156 36 196 153 136 156 174 172 169
325 328 331 333 333 333 333 331 328 328 328 313 283 189 127 237 210 295 8 110 45 43 80 89 119 101 121 344 349 336 329 328 212 188 200 138 266 236 151 166 175 187 181 182 189
317 320 325 328 329 327 326 325 322 321 320 291 249 173 226 210 205 247 49 124 74 48 72 83 66 99 71 234 18 21 52 356 313 137 206 135 264 261 168 172 196 196 188 187 192
307 313 316 322 325 324 322 321 314 312 311 254 211 168 264 193 218 231 253 149 76 98 66 71 62 80 27 65 8 14 279 267 313 198 127 188 266 261 174 190 201 203 195 196 194
300 307 313 319 322 323 322 320 311 301 197 112 116 34 223 225 175 195 210 201 117 104 57 55 48 49 32 70 251 264 286 260 241 290 205 235 267 261 203 200 213 201 194 200 199
305 310 309 314 320 326 331 335 14 350 18 213 180 228 211 186 214 205 174 129 110 71 198 25 57 244 233 207 196 208 225 247 252 232 244 238 253 270 217 217 225 205 202 206 205
307 312 316 314 316 323 327 46 78 153 304 256 227 269 222 163 257 218 174 162 156 192 132 24 235 222 161 146 185 219 272 270 283 283 188 266 252 272 204 222 218 214 205 204 196
303 308 316 317 318 319 358 92 52 38 259 293 216 205 197 160 211 211 158 164 165 160 183 176 232 118 156 178 217 221 197 244 240 332 276 314 260 243 250 252 241 223 209 209 197
293 301 316 322 312 337 334 356 74 27 42 270 245 281 113 145 261 129 178 146 183 196 167 229 231 197 198 243 158 275 206 261 289 345 256 31 291 252 247 265 227 219 200 204 192
284 290 303 325 306 303 290 359 62 61 321 259 208 137 112 177 133 234 41 67 178 180 134 241 173 193 206 219 159 224 102 226 229 251 329 215 250 255 52 271 260 218 215 205 194
279 276 282 284 277 272 284 178 53 52 249 259 146 176 153 214 216 101 101 50 43 121 323 246 3 176 215 146 166 111 37 50 53 54 312 232 196 233 202 217 256 234 215 195 190
264 258 249 259 240 259 187 20 33 178 283 225 215 171 190 194 210 182 171 177 177 149 222 256 217 234 173 134 86 98 70 326 327 350 234 162 235 254 252 250 235 244 205 202 186
256 243 235 237 258 203 129 65 217 215 220 66 138 112 189 160 239 188 168 222 237 99 115 209 281 176 183 203 181 171 167 165 246 237 284 54 244 253 240 282 278 264 215 190 182
233 236 229 232 224 202 88 215 201 186 203 169 106 175 224 224 194 160 203 207 203 170 186 173 266 137 187 128 138 172 180 166 74 88 350 247 283 286 280 282 279 217 175 191 188
214 227 223 219 201 155 131 233 207 195 145 150 208 187 201 204 175 184 183 197 225 197 147 204 284 174 127 131 30 153 156 78 16 259 264 263 278 252 249 262 191 226 215 202 189
202 231 206 198 162 182 220 225 217 229 181 182 216 240 213 185 199 208 215 242 208 136 114 135 155 208 129 207 176 128 216 125 154 168 203 289 271 193 211 219 201 215 216 202 199
181 231 191 158 187 212 228 193 201 223 224 244 214 221 202 189 205 222 216 215 160 155 167 202 158 203 216 301 347 243 201 178 195 228 248 153 261 163 196 219 183 213 210 206 203
192 191 180 186 213 217 245 254 220 193 200 209 226 193 188 198 231 195 224 189 160 159 171 175 222 286 315 40 351 223 212 221 87 130 237 210 261 130 348 145 209 217 211 206 199
169 185 178 215 232 222 222 235 229 219 236 221 223 180 170 223 220 253 226 206 198 209 188 160 192 180 233 220 129 185 217 208 212 233 250 242 260 269 268 267 224 222 209 203 197
190 214 180 201 222 221 210 229 229 226 214 209 245 229 213 233 230 238 247 70 220 225 180 180 237 197 245 252 204 218 238 188 209 230 234 262 261 266 271 271 269 239 211 194 191
198 208 189 232 184 210 219 240 240 227 186 215 227 208 224 230 223 238 226 211 222 93 174 194 241 224 254 249 198 265 258 236 233 247 251 256 266 267 268 281 279 236 194 193 196
221 215 215 216 221 198 215 231 237 230 243 233 226 225 231 232 233 239 244 243 219 198 184 169 190 154 250 208 89 271 258 241 248 245 237 249 250 262 274 257 236 201 193 198 192